Temperature
18 18 17 17 17 18 18 18 17 18 17 17 16 16 16 15 15 14 14 14 13 13 13 13 13 13 13 12 13 13 13 13 13 14 15 15 15 16 15 15 16 16 16
19 18 17 17 17 17 18 18 18 17 17 16 16 16 16 15 15 14 13 13 13 13 12 12 12 12 12 12 12 12 12 13 13 13 14 16 16 16 16 15 15 15 15
19 19 18 18 18 18 18 17 17 17 17 16 16 15 15 15 14 14 13 13 12 12 12 11 11 11 11 12 11 11 12 12 13 13 13 15 16 16 16 15 15 15 15
20 20 19 18 18 18 18 17 17 17 17 16 16 15 15 15 14 13 13 12 12 11 11 11 11 11 11 11 11 12 11 11 12 13 12 13 13 13 15 15 15 14 14
21 20 20 19 19 18 17 17 17 17 16 16 15 15 14 14 14 13 12 12 12 11 11 10 10 10 10 10 10 10 10 11 11 12 12 13 12 12 13 14 14 14 14
21 21 20 19 19 18 18 17 17 17 16 16 15 15 14 13 13 12 12 12 12 11 11 10 10 10 10 10 10 10 10 10 10 11 11 12 12 13 13 13 13 14 14
22 21 20 20 19 18 18 17 17 16 16 15 15 14 13 13 12 12 12 11 12 11 11 10 10 10 9 9 9 9 9 10 10 10 10 11 12 12 12 13 13 13 13
22 21 20 20 19 18 17 17 16 16 15 15 14 14 13 12 12 12 11 11 11 11 10 10 9 9 9 9 9 9 9 9 9 9 10 10 11 11 11 12 12 13 13
22 22 21 20 19 18 17 17 16 16 15 14 14 13 12 12 11 11 11 11 10 10 10 10 9 9 9 9 9 9 9 9 9 9 10 10 10 10 11 11 11 12 13
23 22 20 19 19 18 17 17 16 15 15 14 13 13 12 11 11 11 10 10 10 10 10 10 9 9 9 9 9 9 9 9 9 9 9 9 10 10 10 11 11 11 12
23 21 20 19 18 17 17 16 16 15 14 13 13 12 12 11 11 10 10 10 10 10 10 9 9 9 9 9 9 9 9 9 9 9 9 9 9 9 10 10 10 11 11
22 21 20 19 18 17 17 16 15 14 14 13 13 12 11 11 11 10 10 10 10 10 9 9 9 9 9 9 9 9 9 9 9 9 9 9 9 9 9 9 10 10 10
21 20 19 18 18 17 16 16 15 14 14 13 12 12 11 11 11 10 10 10 10 9 9 9 9 9 9 9 9 9 9 9 9 9 9 9 9 9 9 9 9 10 10
20 20 19 18 18 17 16 16 15 14 14 13 12 12 11 11 10 10 10 10 9 9 9 9 9 9 9 9 9 9 9 9 9 8 8 8 8 8 8 9 9 9 10
20 20 19 19 18 17 16 16 15 14 13 13 12 12 11 11 10 10 10 10 9 9 9 9 9 9 9 9 9 9 9 8 8 8 8 8 8 8 8 9 9 9 9
21 20 19 18 18 17 16 16 15 14 13 13 12 12 11 11 10 10 10 9 9 9 9 9 9 9 9 9 9 8 8 8 8 8 8 8 8 8 8 8 9 9 8
21 20 19 19 18 17 17 16 15 14 13 13 12 12 11 11 10 10 10 9 9 9 9 9 9 9 9 9 9 8 8 8 8 8 8 8 9 8 8 8 8 8 8
21 20 19 19 18 17 16 16 15 14 13 13 12 12 11 11 10 10 10 9 9 9 9 9 9 9 9 9 8 8 8 8 8 8 8 8 8 8 8 8 8 8 8
21 20 20 19 18 17 16 16 15 14 13 13 12 12 11 11 10 10 10 9 9 9 9 9 9 9 9 8 8 8 8 8 8 8 8 8 8 8 7 7 7 8 8
21 20 19 19 18 17 16 15 15 14 14 13 12 11 11 11 10 10 10 10 9 9 9 9 9 9 9 8 8 8 7 7 8 8 8 8 7 7 7 7 7 7 8
20 20 19 18 18 17 16 16 15 14 13 13 12 12 11 11 10 10 10 10 9 9 9 9 9 9 8 8 8 8 7 7 7 8 8 8 7 7 7 7 7 7 7
20 20 19 18 18 17 16 16 15 14 13 13 12 12 11 11 11 10 10 9 9 9 9 9 9 9 8 8 8 8 7 7 7 7 7 7 7 7 7 7 7 7 7
20 19 19 18 17 17 16 16 15 14 13 13 12 12 11 11 11 10 10 10 9 9 10 10 9 9 9 8 8 8 8 7 7 7 7 7 7 7 7 7 7 7 6
19 19 18 18 17 17 16 16 15 14 14 13 12 12 11 11 11 10 10 10 10 10 10 9 9 9 9 8 8 7 7 7 7 7 7 7 7 7 7 6 6 6 6
19 18 18 17 17 16 16 15 15 14 14 13 12 12 11 11 11 11 10 10 10 9 9 9 9 8 8 8 8 7 7 7 7 7 7 7 7 7 7 7 7 7 7
18 18 18 17 17 16 16 15 15 14 14 13 12 12 12 12 11 11 11 11 10 10 9 9 9 8 8 8 8 8 7 7 7 7 6 7 7 7 7 7 7 7 7
Wind_Speed
8 8 8 7 7 7 7 6 6 6 4 3 3 2 2 1 1 1 1 2 4 4 5 6 5 6 7 7 8 7 8 8 7 9 10 10 11 10 9 10 10 12 14
9 9 9 8 8 8 7 7 7 6 6 3 2 2 2 3 2 2 1 3 3 4 5 5 7 6 6 7 7 7 8 8 6 8 9 9 8 6 7 7 8 9 9
11 11 11 10 10 9 9 7 7 6 6 5 4 3 3 4 4 4 3 3 5 5 5 6 7 7 8 7 7 8 9 9 8 7 7 7 7 7 5 5 5 5 6
11 11 11 11 11 10 9 8 8 7 6 6 6 6 6 7 6 5 5 5 6 6 6 7 7 7 8 7 8 7 7 9 9 7 7 8 8 7 7 6 5 5 6
12 11 11 11 10 10 9 9 8 8 7 6 6 6 7 7 6 6 6 7 7 6 7 7 7 7 7 7 7 8 9 9 9 9 8 8 8 10 10 10 8 7 7
12 11 10 10 10 9 9 8 8 7 6 6 6 6 6 7 8 8 8 8 6 6 6 7 7 8 8 7 8 8 9 9 9 9 10 9 9 9 9 11 11 10 9
11 11 11 10 10 9 8 7 7 6 6 6 6 5 6 7 8 8 8 8 8 7 6 7 7 8 7 8 9 9 9 9 10 10 10 10 10 10 10 11 11 11 10
11 10 10 9 8 8 7 7 6 6 5 5 4 5 5 7 7 6 8 9 8 8 8 8 9 9 9 9 9 9 10 9 10 11 11 10 11 10 10 11 11 11 10
11 10 9 8 8 7 7 6 5 5 5 4 4 5 6 7 7 8 9 9 8 9 9 9 10 10 9 10 10 9 10 10 11 11 11 11 11 10 11 11 11 11 12
10 9 8 8 7 7 6 6 5 5 4 5 5 5 6 7 7 8 9 9 10 10 10 10 10 10 10 10 10 11 10 10 11 10 11 11 11 10 10 11 11 11 12
10 9 9 8 8 7 7 6 5 5 5 5 5 6 7 7 8 9 9 9 9 10 10 11 11 11 11 11 11 12 12 12 12 12 12 13 13 11 11 11 11 11 11
9 9 10 9 8 8 6 6 5 5 5 5 6 7 7 8 9 10 10 10 10 10 11 11 11 12 12 12 12 13 13 13 13 13 13 13 12 13 12 12 12 12 11
10 10 10 9 8 7 6 5 5 5 5 6 7 7 8 9 9 10 10 10 10 11 11 11 12 12 13 13 13 13 13 13 14 13 14 14 13 14 13 13 13 12 12
11 11 10 9 8 7 6 5 5 5 5 6 7 8 9 9 10 10 10 10 11 11 12 12 12 13 13 13 13 13 13 14 14 14 14 14 14 14 14 13 13 13 13
11 11 10 9 8 7 6 6 5 5 6 7 8 9 9 9 10 10 10 11 11 12 12 12 13 13 12 12 12 12 13 14 14 14 14 15 14 13 12 12 13 12 12
11 11 10 9 9 8 7 6 6 5 6 7 8 9 9 10 10 10 11 11 11 12 12 12 13 13 12 7 6 11 14 15 15 15 14 14 14 15 16 17 17 16 15
10 10 10 10 8 8 7 6 6 6 6 7 8 9 9 10 10 11 11 11 12 12 12 13 13 13 13 9 10 11 13 15 15 15 14 13 13 12 14 16 20 21 21
9 10 9 9 8 7 7 6 6 6 7 8 8 9 9 10 10 11 11 12 11 11 12 12 13 13 13 9 10 11 14 15 16 16 15 15 15 14 13 14 15 16 17
9 9 9 8 8 7 7 6 7 7 8 8 8 9 9 10 11 11 11 11 11 12 12 13 13 13 13 10 10 10 12 13 15 15 14 14 14 11 9 14 16 16 15
8 8 8 8 8 8 7 7 7 8 8 8 8 8 9 10 11 12 12 11 11 12 13 13 13 13 14 9 8 9 11 12 12 12 12 12 13 10 7 13 15 16 15
10 10 9 9 9 8 8 8 8 8 8 7 8 9 9 10 11 12 11 11 11 12 13 13 13 13 12 11 9 10 9 11 12 11 10 9 8 11 11 13 14 14 13
10 11 10 9 8 8 9 9 9 8 7 7 9 9 10 10 10 11 11 11 11 12 13 12 12 11 9 9 7 8 11 12 12 11 11 8 4 8 11 12 12 11 11
9 10 10 9 9 9 9 10 9 7 7 8 9 10 10 10 10 11 11 11 10 10 11 11 11 10 9 8 8 11 12 12 11 11 10 10 9 9 11 15 14 12 12
8 8 9 10 9 9 10 10 8 8 8 9 10 10 10 11 10 9 10 10 10 10 11 11 11 11 10 9 7 6 6 9 11 11 10 13 14 13 12 9 11 12 12
6 6 7 8 9 8 9 9 9 8 9 10 10 10 10 10 9 10 9 11 10 9 10 11 11 11 11 8 7 8 9 9 8 9 9 9 8 9 9 9 10 10 11
4 5 6 7 8 8 8 8 9 9 10 10 10 9 9 8 9 10 10 10 12 11 14 15 14 12 12 12 12 11 12 13 11 9 10 10 9 9 9 9 9 9 11
Wind_Direction
166 165 167 168 168 169 173 176 175 168 182 189 206 210 223 240 264 298 15 330 328 327 309 307 308 294 291 294 290 287 281 275 288 287 284 274 257 251 252 250 252 246 242
175 179 183 184 186 184 186 189 192 192 204 202 226 254 284 272 282 296 295 305 315 309 301 314 301 301 297 278 280 276 286 288 282 289 296 290 272 237 247 249 246 250 249
187 189 192 194 195 196 198 200 202 205 214 215 227 230 236 254 261 276 277 301 303 301 308 304 304 306 292 289 290 280 271 282 284 277 289 295 296 311 261 252 261 264 261
197 196 196 201 204 205 205 208 211 214 215 221 241 256 273 288 302 300 302 301 289 295 297 297 296 295 294 294 281 281 282 272 276 271 260 271 296 292 291 272 260 268 270
201 202 205 209 212 212 212 211 213 216 218 228 238 252 270 286 292 295 290 290 291 286 290 294 295 291 287 293 296 294 280 274 272 278 276 269 264 259 271 283 287 285 280
204 208 212 213 216 216 216 216 214 219 219 225 237 253 275 286 294 294 296 292 292 289 288 289 288 283 287 288 282 282 273 272 277 277 275 273 272 272 273 278 282 285 286
204 207 211 213 214 215 215 215 212 216 217 225 239 253 270 279 278 286 293 295 297 295 297 297 289 285 282 280 279 274 277 273 269 266 269 271 271 274 276 278 281 283 284
202 206 210 211 210 206 201 203 207 214 217 226 241 258 267 276 286 291 297 296 296 299 305 292 284 280 278 276 273 274 269 266 266 265 268 271 268 270 268 271 279 281 280
196 199 195 194 190 188 188 192 195 204 216 233 246 258 267 279 289 289 279 285 291 292 291 288 284 280 275 273 272 270 272 270 266 265 259 257 265 263 265 266 267 273 279
191 186 179 178 176 175 174 179 191 208 227 242 257 268 271 273 278 284 292 293 292 290 289 286 283 279 275 269 266 269 264 264 264 264 270 269 267 266 263 263 262 261 266
188 178 173 169 170 174 178 187 199 218 240 258 263 273 276 281 283 283 284 286 287 289 285 285 284 281 277 272 267 267 271 266 266 263 260 257 262 266 266 262 259 259 260
183 175 172 172 177 185 193 203 218 237 255 264 266 271 277 280 283 286 288 287 285 285 285 284 282 280 277 274 269 267 268 267 266 265 264 261 258 254 258 263 262 261 262
182 178 178 182 188 196 206 221 236 252 265 268 268 274 279 284 286 289 289 288 286 285 285 284 282 280 280 276 271 269 269 268 267 266 264 262 260 258 256 257 259 260 257
186 187 186 191 196 203 212 228 243 257 267 273 275 279 284 288 289 289 289 287 287 286 286 285 284 282 280 277 274 271 270 269 268 266 263 261 258 256 256 256 255 258 261
193 194 196 196 200 208 216 229 242 254 268 275 279 283 287 288 286 286 287 288 287 286 288 288 286 283 279 275 278 280 277 274 271 267 263 260 257 261 262 262 260 256 253
204 201 202 203 207 213 221 229 239 252 260 271 280 286 289 288 287 288 289 290 290 290 290 287 287 286 284 302 299 282 282 279 274 270 266 263 252 244 238 247 258 265 262
209 205 206 209 212 214 219 227 237 250 260 271 280 285 288 289 290 292 294 293 293 292 290 288 288 286 284 274 262 260 274 275 272 270 268 265 262 248 248 238 234 243 247
211 207 209 210 210 209 213 223 238 249 261 272 279 285 289 291 292 292 292 293 293 292 290 289 288 287 285 269 258 257 267 270 267 266 265 263 264 260 259 260 252 246 240
214 209 210 211 207 207 212 219 239 253 264 273 281 288 292 293 293 293 295 296 295 293 291 289 289 287 286 268 251 255 278 271 269 267 265 264 264 258 247 258 261 260 254
205 203 202 203 202 208 210 222 242 256 267 277 284 289 290 290 291 293 294 295 294 291 292 292 292 291 289 283 252 248 276 277 277 274 269 256 251 263 242 254 257 257 255
204 201 202 204 206 204 206 225 246 257 269 278 281 283 286 287 285 288 290 291 292 293 292 292 291 288 285 280 248 236 268 280 283 282 278 273 216 228 235 247 257 261 267
208 205 205 210 207 203 209 230 246 258 266 269 273 278 283 286 290 289 288 288 290 290 288 288 290 290 287 280 264 230 245 268 277 278 278 282 237 232 236 241 250 255 258
214 211 211 215 212 208 216 234 246 251 257 264 271 278 282 283 284 285 287 287 284 287 295 298 299 301 302 290 236 234 243 246 258 270 278 282 268 256 246 237 237 240 242
218 215 215 219 219 216 222 234 245 245 250 259 268 273 277 280 282 283 283 287 292 296 300 301 301 301 299 298 306 295 273 246 252 264 261 245 244 247 257 251 227 231 236
218 214 218 226 230 226 229 235 237 238 248 256 263 269 273 277 281 279 278 283 287 292 291 297 300 299 297 318 346 310 297 300 307 307 284 272 262 251 247 246 239 232 228
223 222 225 230 234 233 234 237 237 233 242 252 258 268 274 278 279 283 284 253 247 254 245 250 264 282 280 293 295 286 278 277 280 280 273 271 266 261 256 250 243 235 232
Height
1538 1540 1541 1542 1543 1544 1545 1547 1548 1548 1549 1550 1551 1551 1550 1550 1549 1548 1545 1544 1543 1541 1540 1540 1538 1537 1537 1535 1535 1534 1533 1532 1531 1530 1528 1526 1524 1523 1522 1523 1523 1524 1525
1538 1539 1541 1542 1543 1544 1545 1546 1547 1548 1548 1549 1549 1548 1548 1548 1547 1546 1543 1541 1540 1538 1538 1536 1535 1534 1532 1531 1531 1530 1530 1529 1529 1528 1525 1523 1521 1519 1519 1518 1518 1519 1519
1536 1538 1540 1541 1542 1543 1544 1545 1546 1546 1547 1547 1547 1546 1546 1545 1545 1543 1541 1539 1537 1535 1533 1532 1531 1530 1529 1529 1527 1526 1526 1526 1526 1525 1524 1522 1518 1517 1516 1515 1515 1514 1514
1534 1537 1538 1540 1541 1542 1543 1543 1544 1544 1544 1544 1545 1545 1544 1544 1542 1540 1539 1536 1534 1532 1530 1529 1527 1526 1526 1525 1524 1524 1523 1522 1522 1522 1521 1521 1519 1518 1514 1514 1512 1511 1510
1532 1534 1536 1538 1539 1540 1541 1541 1541 1542 1542 1541 1541 1541 1541 1540 1539 1537 1535 1532 1531 1529 1527 1525 1524 1523 1522 1521 1519 1519 1518 1519 1518 1518 1518 1517 1516 1515 1514 1511 1510 1509 1508
1529 1532 1534 1535 1536 1537 1538 1539 1539 1539 1539 1538 1538 1537 1537 1535 1534 1533 1531 1530 1529 1527 1525 1523 1521 1519 1519 1517 1516 1515 1514 1514 1513 1513 1513 1513 1513 1511 1510 1508 1506 1505 1504
1526 1528 1530 1532 1533 1534 1535 1536 1536 1536 1535 1535 1535 1534 1533 1531 1530 1529 1528 1526 1525 1524 1522 1520 1517 1516 1514 1513 1512 1511 1510 1510 1509 1508 1509 1509 1508 1508 1507 1505 1503 1501 1500
1523 1525 1527 1529 1530 1531 1532 1533 1533 1533 1533 1532 1531 1530 1529 1528 1528 1526 1524 1523 1521 1520 1517 1515 1513 1512 1510 1509 1508 1507 1506 1505 1504 1504 1503 1503 1503 1503 1502 1502 1500 1498 1496
1520 1522 1524 1526 1527 1528 1529 1530 1530 1530 1529 1529 1528 1526 1525 1524 1523 1521 1519 1519 1517 1515 1513 1511 1509 1507 1506 1505 1503 1503 1501 1501 1500 1499 1499 1498 1498 1498 1497 1497 1497 1496 1493
1517 1519 1521 1523 1525 1526 1526 1527 1527 1526 1526 1525 1524 1524 1522 1520 1519 1517 1516 1514 1512 1510 1508 1507 1505 1503 1502 1500 1499 1498 1497 1496 1495 1494 1493 1492 1493 1493 1492 1492 1491 1491 1490
1513 1516 1519 1520 1522 1523 1523 1523 1523 1523 1522 1522 1520 1519 1518 1517 1515 1514 1512 1510 1508 1506 1504 1502 1500 1499 1497 1496 1494 1493 1492 1491 1490 1489 1488 1487 1487 1487 1487 1487 1486 1486 1485
1511 1514 1516 1517 1518 1520 1521 1521 1521 1520 1519 1518 1517 1516 1514 1513 1511 1510 1508 1506 1504 1502 1500 1498 1496 1494 1493 1491 1490 1488 1487 1486 1485 1484 1483 1482 1482 1481 1481 1481 1481 1480 1480
1508 1511 1513 1514 1516 1517 1517 1518 1517 1517 1516 1515 1514 1512 1511 1510 1508 1506 1504 1502 1499 1497 1495 1493 1491 1489 1487 1486 1484 1483 1481 1480 1479 1478 1477 1476 1476 1475 1475 1475 1475 1475 1475
1505 1507 1509 1511 1512 1513 1514 1514 1514 1513 1513 1512 1511 1509 1508 1506 1504 1502 1500 1497 1495 1493 1491 1488 1486 1484 1482 1480 1479 1477 1476 1474 1473 1471 1470 1470 1469 1469 1469 1469 1469 1469 1469
1502 1504 1506 1508 1509 1510 1510 1510 1510 1510 1509 1508 1507 1506 1504 1502 1499 1497 1495 1493 1491 1488 1486 1483 1481 1478 1477 1475 1474 1471 1470 1468 1466 1465 1464 1463 1463 1462 1462 1463 1463 1464 1464
1499 1501 1502 1504 1505 1506 1506 1506 1506 1506 1505 1504 1503 1502 1500 1498 1496 1493 1491 1489 1486 1484 1481 1478 1475 1473 1472 1470 1467 1465 1463 1461 1460 1458 1457 1457 1455 1454 1454 1454 1455 1456 1457
1495 1497 1499 1500 1501 1502 1502 1502 1503 1502 1501 1500 1499 1498 1496 1494 1492 1490 1487 1484 1481 1479 1476 1473 1470 1467 1465 1462 1460 1458 1456 1454 1453 1451 1450 1450 1450 1449 1448 1447 1447 1448 1448
1492 1493 1495 1496 1497 1498 1498 1499 1499 1498 1498 1497 1495 1494 1492 1490 1487 1485 1482 1479 1476 1474 1471 1468 1465 1462 1459 1456 1454 1451 1449 1447 1446 1444 1443 1442 1442 1442 1442 1442 1441 1441 1441
1488 1490 1491 1493 1494 1494 1495 1495 1495 1495 1494 1493 1492 1490 1488 1485 1483 1480 1478 1475 1472 1468 1465 1463 1459 1456 1453 1451 1448 1446 1443 1441 1440 1438 1437 1435 1435 1435 1434 1434 1434 1434 1435
1484 1486 1487 1488 1489 1490 1491 1491 1491 1491 1490 1489 1488 1486 1483 1480 1478 1475 1472 1470 1467 1463 1460 1457 1454 1451 1447 1445 1442 1440 1438 1436 1434 1432 1430 1429 1428 1428 1427 1427 1427 1427 1427
1480 1481 1483 1484 1485 1486 1486 1486 1487 1486 1486 1485 1483 1481 1478 1476 1473 1470 1467 1465 1462 1459 1455 1452 1448 1445 1442 1439 1436 1434 1432 1430 1428 1426 1425 1424 1422 1421 1420 1420 1420 1420 1421
1476 1478 1478 1480 1481 1481 1481 1482 1482 1482 1481 1479 1478 1476 1474 1471 1469 1466 1462 1460 1457 1453 1450 1447 1443 1440 1437 1434 1431 1429 1426 1424 1422 1420 1419 1418 1416 1415 1414 1413 1413 1414 1414
1472 1473 1474 1475 1476 1477 1477 1477 1477 1477 1476 1475 1473 1471 1469 1466 1463 1461 1458 1455 1453 1450 1446 1443 1439 1436 1433 1430 1426 1423 1420 1418 1416 1414 1412 1411 1409 1408 1407 1407 1407 1407 1408
1468 1469 1469 1471 1472 1472 1472 1472 1472 1471 1470 1469 1468 1466 1464 1462 1459 1456 1454 1452 1449 1446 1442 1439 1435 1431 1428 1425 1422 1419 1416 1413 1411 1409 1407 1405 1403 1402 1401 1400 1400 1400 1401
1464 1464 1465 1466 1467 1468 1468 1468 1467 1466 1465 1464 1462 1461 1459 1457 1454 1451 1449 1446 1443 1441 1437 1434 1430 1427 1423 1421 1417 1414 1411 1409 1407 1404 1402 1400 1398 1396 1395 1394 1394 1394 1394
1460 1461 1461 1461 1462 1462 1462 1462 1462 1460 1459 1457 1457 1456 1454 1452 1449 1447 1444 1440 1438 1434 1431 1427 1424 1420 1418 1414 1411 1409 1406 1404 1402 1399 1397 1395 1393 1391 1390 1389 1388 1388 1388